When you browse on this site, cookies collect data to enhance your experience and personalize the content and advertising you see.
Visit our Privacy Policy to learn more. By continuing to use the site, you agree to this use of cookies and data.
  • In United Kingdom
  • List of Countries
  • For 7 days
  • Water Temperature
  • Weather Map
  • Weather Widgets
  • user-avatar
    Login

    Hourly Weather Durres

    Today, 20 September, Friday

    Time Temperature Precipitation Wind Pressure Humidity
    00:00 +20°C° 1.1 mm 6 mps 761 mmHg 85%
    01:00 +21°C° 0 mm 6 mps 762 mmHg 83%
    02:00 +20°C° 0.3 mm 7 mps 762 mmHg 82%
    03:00 +20°C° 0.3 mm 7 mps 762 mmHg 81%
    04:00 +20°C° 0.3 mm 8 mps 762 mmHg 80%
    05:00 +20°C° 0 mm 8 mps 762 mmHg 76%
    06:00 +20°C° 0 mm 8 mps 762 mmHg 71%
    07:00 +20°C° 0 mm 8 mps 762 mmHg 70%
    08:00 +21°C° 0 mm 8 mps 762 mmHg 62%
    09:00 +23°C° 0 mm 7 mps 762 mmHg 54%
    10:00 +24°C° 0 mm 7 mps 762 mmHg 46%
    11:00 +26°C° 0 mm 8 mps 762 mmHg 43%
    12:00 +27°C° 0 mm 8 mps 762 mmHg 40%
    13:00 +28°C° 0 mm 8 mps 762 mmHg 37%
    14:00 +28°C° 0 mm 8 mps 762 mmHg 36%
    15:00 +28°C° 0 mm 9 mps 762 mmHg 34%
    16:00 +28°C° 0 mm 9 mps 762 mmHg 33%
    17:00 +26°C° 0 mm 9 mps 762 mmHg 36%
    18:00 +23°C° 0 mm 9 mps 763 mmHg 39%
    19:00 +21°C° 0 mm 9 mps 763 mmHg 42%
    20:00 +20°C° 0 mm 8 mps 763 mmHg 43%
    21:00 +20°C° 0 mm 7 mps 764 mmHg 44%
    22:00 +20°C° 0 mm 6 mps 764 mmHg 45%
    23:00 +19°C° 0 mm 6 mps 764 mmHg 43%

    Tomorrow, 21 September, Saturday

    Time Temperature Precipitation Wind Pressure Humidity
    00:00 +19°C° 0 mm 6 mps 764 mmHg 41%
    01:00 +17°C° 0 mm 5 mps 765 mmHg 39%
    02:00 +17°C° 0 mm 5 mps 765 mmHg 38%
    03:00 +16°C° 0 mm 6 mps 765 mmHg 37%
    04:00 +16°C° 0 mm 6 mps 765 mmHg 36%
    05:00 +16°C° 0 mm 5 mps 765 mmHg 36%
    06:00 +17°C° 0 mm 5 mps 765 mmHg 35%
    07:00 +19°C° 0 mm 5 mps 765 mmHg 34%
    08:00 +21°C° 0 mm 4 mps 765 mmHg 30%
    09:00 +25°C° 0 mm 4 mps 765 mmHg 26%
    10:00 +27°C° 0 mm 3 mps 765 mmHg 22%
    11:00 +28°C° 0 mm 4 mps 765 mmHg 23%
    12:00 +29°C° 0 mm 4 mps 765 mmHg 23%
    13:00 +29°C° 0 mm 4 mps 765 mmHg 23%
    14:00 +28°C° 0 mm 5 mps 764 mmHg 26%
    15:00 +27°C° 0 mm 5 mps 764 mmHg 28%
    16:00 +26°C° 0 mm 6 mps 764 mmHg 31%
    17:00 +25°C° 0 mm 5 mps 764 mmHg 38%
    18:00 +22°C° 0 mm 5 mps 765 mmHg 44%
    19:00 +20°C° 0 mm 5 mps 765 mmHg 51%
    20:00 +20°C° 0 mm 4 mps 765 mmHg 52%
    21:00 +19°C° 0 mm 3 mps 765 mmHg 52%
    22:00 +19°C° 0 mm 3 mps 765 mmHg 53%
    23:00 +19°C° 0 mm 2 mps 765 mmHg 51%

    Day after tomorrow, 22 September, Sunday

    Time Temperature Precipitation Wind Pressure Humidity
    00:00 +19°C° 0 mm 2 mps 765 mmHg 49%
    01:00 +19°C° 0 mm 1 mps 765 mmHg 48%
    02:00 +19°C° 0 mm 1 mps 765 mmHg 48%
    03:00 +19°C° 0 mm 1 mps 764 mmHg 48%
    04:00 +19°C° 0 mm 1 mps 764 mmHg 48%
    05:00 +20°C° 0 mm 1 mps 764 mmHg 46%
    06:00 +20°C° 0 mm 1 mps 764 mmHg 45%
    07:00 +21°C° 0 mm 1 mps 764 mmHg 43%
    08:00 +23°C° 0 mm 1 mps 764 mmHg 39%
    09:00 +25°C° 0 mm 1 mps 764 mmHg 36%
    10:00 +27°C° 0 mm 1 mps 764 mmHg 32%
    11:00 +28°C° 0 mm 1 mps 764 mmHg 32%
    12:00 +29°C° 0 mm 2 mps 763 mmHg 32%
    13:00 +29°C° 0 mm 2 mps 763 mmHg 32%
    14:00 +28°C° 0 mm 2 mps 763 mmHg 36%
    15:00 +28°C° 0 mm 1 mps 762 mmHg 40%
    16:00 +27°C° 0 mm 1 mps 762 mmHg 44%
    17:00 +25°C° 0 mm 1 mps 762 mmHg 51%
    18:00 +24°C° 0 mm 1 mps 762 mmHg 57%
    19:00 +22°C° 0 mm 1 mps 763 mmHg 63%
    20:00 +21°C° 0 mm 2 mps 763 mmHg 64%
    21:00 +21°C° 0 mm 2 mps 763 mmHg 64%
    22:00 +20°C° 0 mm 3 mps 762 mmHg 65%
    23:00 +20°C° 0 mm 3 mps 762 mmHg 66%

    23 September, Monday

    Time Temperature Precipitation Wind Pressure Humidity
    00:00 +20°C° 0 mm 3 mps 762 mmHg 66%
    01:00 +20°C° 0 mm 3 mps 762 mmHg 67%
    02:00 +20°C° 0 mm 3 mps 762 mmHg 65%
    03:00 +20°C° 0 mm 3 mps 762 mmHg 63%
    04:00 +21°C° 0 mm 3 mps 761 mmHg 61%
    05:00 +21°C° 0 mm 3 mps 761 mmHg 58%
    06:00 +22°C° 0 mm 3 mps 761 mmHg 55%
    07:00 +22°C° 0 mm 3 mps 761 mmHg 52%
    08:00 +25°C° 0 mm 4 mps 761 mmHg 46%
    09:00 +27°C° 0 mm 4 mps 761 mmHg 41%
    10:00 +28°C° 0 mm 4 mps 761 mmHg 35%
    11:00 +29°C° 0 mm 5 mps 761 mmHg 37%
    12:00 +30°C° 0 mm 6 mps 760 mmHg 38%
    13:00 +32°C° 0 mm 6 mps 759 mmHg 40%
    14:00 +30°C° 0.1 mm 6 mps 759 mmHg 45%
    15:00 +30°C° 0.1 mm 6 mps 759 mmHg 50%
    16:00 +29°C° 0.1 mm 6 mps 758 mmHg 54%
    17:00 +27°C° 1 mm 6 mps 758 mmHg 64%
    18:00 +26°C° 1 mm 5 mps 759 mmHg 74%
    19:00 +23°C° 1 mm 5 mps 759 mmHg 84%
    20:00 +23°C° 0 mm 5 mps 758 mmHg 81%
    21:00 +23°C° 0 mm 5 mps 758 mmHg 79%
    22:00 +23°C° 0 mm 5 mps 758 mmHg 77%
    23:00 +23°C° 0.1 mm 5 mps 758 mmHg 76%

    24 September, Tuesday

    Time Temperature Precipitation Wind Pressure Humidity
    00:00 +22°C° 0.1 mm 6 mps 758 mmHg 76%
    01:00 +22°C° 0.1 mm 7 mps 757 mmHg 75%
    02:00 +22°C° 1.1 mm 7 mps 757 mmHg 75%
    03:00 +22°C° 1.1 mm 8 mps 757 mmHg 75%
    04:00 +22°C° 1.1 mm 8 mps 756 mmHg 75%
    05:00 +22°C° 0.6 mm 8 mps 756 mmHg 75%
    06:00 +23°C° 0.6 mm 7 mps 756 mmHg 75%
    07:00 +23°C° 0.6 mm 7 mps 756 mmHg 75%
    08:00 +24°C° 0.3 mm 7 mps 756 mmHg 70%
    09:00 +26°C° 0.3 mm 6 mps 756 mmHg 66%
    10:00 +28°C° 0.3 mm 6 mps 756 mmHg 61%
    11:00 +28°C° 0 mm 6 mps 756 mmHg 56%
    12:00 +29°C° 0 mm 6 mps 756 mmHg 51%
    13:00 +29°C° 0 mm 7 mps 756 mmHg 47%
    14:00 +28°C° 0 mm 7 mps 756 mmHg 48%
    15:00 +27°C° 0 mm 7 mps 756 mmHg 50%
    16:00 +27°C° 0 mm 6 mps 756 mmHg 51%
    17:00 +24°C° 0 mm 6 mps 756 mmHg 60%
    18:00 +23°C° 0 mm 5 mps 756 mmHg 68%
    19:00 +21°C° 0 mm 5 mps 757 mmHg 76%
    20:00 +21°C° 0 mm 4 mps 757 mmHg 76%
    21:00 +20°C° 0 mm 3 mps 757 mmHg 76%
    22:00 +20°C° 0 mm 2 mps 757 mmHg 77%
    23:00 +20°C° 0 mm 2 mps 757 mmHg 77%

    25 September, Wednesday

    Time Temperature Precipitation Wind Pressure Humidity
    00:00 +20°C° 0 mm 2 mps 757 mmHg 78%
    01:00 +20°C° 0 mm 2 mps 757 mmHg 79%
    02:00 +19°C° 0.1 mm 2 mps 757 mmHg 79%
    03:00 +19°C° 0.1 mm 2 mps 757 mmHg 80%
    04:00 +19°C° 0.1 mm 2 mps 757 mmHg 81%
    05:00 +20°C° 0.1 mm 2 mps 757 mmHg 78%
    06:00 +20°C° 0.1 mm 2 mps 757 mmHg 75%
    07:00 +21°C° 0.1 mm 2 mps 757 mmHg 72%
    08:00 +23°C° 0 mm 2 mps 758 mmHg 67%
    09:00 +25°C° 0 mm 2 mps 758 mmHg 62%
    10:00 +26°C° 0 mm 2 mps 758 mmHg 57%
    11:00 +27°C° 0 mm 3 mps 758 mmHg 55%
    12:00 +27°C° 0 mm 3 mps 758 mmHg 53%
    13:00 +27°C° 0 mm 4 mps 758 mmHg 51%
    14:00 +27°C° 0 mm 3 mps 758 mmHg 53%
    15:00 +26°C° 0 mm 3 mps 757 mmHg 55%
    16:00 +26°C° 0 mm 3 mps 757 mmHg 56%
    17:00 +24°C° 0 mm 2 mps 758 mmHg 63%
    18:00 +23°C° 0 mm 1 mps 758 mmHg 70%
    19:00 +20°C° 0 mm 0 mps 758 mmHg 76%
    20:00 +21°C° 0 mm 1 mps 758 mmHg 77%
    21:00 +21°C° 0 mm 1 mps 759 mmHg 77%
    22:00 +21°C° 0 mm 1 mps 759 mmHg 78%
    23:00 +21°C° 0 mm 1 mps 759 mmHg 78%
    Show more